Dauntless Aviation
Airports North America United States Colorado
98CO

NCMC HELIPORT

GREELEY, CO, USA

Airport Info
Suggest Updated Information for this Airport

Location

Latitude / Longitude: 40°24'53"N / 104°42'28"W
  40°24.9'N / 104°42.4667'W
  40.4150 / -104.7078
Elevation: 4882 ft. (estimated)
Variation: 12E (1985)
From city: 00 miles N of GREELEY, CO

Operations

Facility use: Private
Sectional chart: DENVER
Control tower: no
Boundary ARTCC: DENVER
FSS: DENVER [1-800-WX-BRIEF]
Segmented circle: no

Communications

Nearby radio navigation aids

VOR radial/distance VOR name Freq Var
GLL 233oT/8.9 GILL VORTAC 114.20 13E
DVV 353oT/31.5 MILE HIGH VORTAC 114.70 11E
BJC 33oT/36.1 JEFFCO VOR/DME 115.40 11E
DEN 357oT/36.2 DENVER VOR/DME 117.90 11E
 
NDB name Hdg/Dist Freq Var ID

Services

Runway Information

Helipad H1

Dimensions: 40 x 40 ft.
Surface: PORTLAND CEMENT CONCRETE,NO SPECIAL SURFACE TREATMENT
 

Additional Remarks

Instrument Procedures

No published instrument procedures available
Topographic chart at:
Satellite photo at:
Airport distance calculator
From:
Weather Reports

METAR

KGXY
4.2nm NE
KGXY 240156Z AUTO 04007KT 10SM CLR 14/02 A3007 RMK AO2 SLP174 T01440022
KFNL
14.3nm W
KFNL 240156Z AUTO 06010KT 10SM CLR 14/02 A3007 RMK AO2 SLP158 T01440017
KLMO
25.8nm SW
KLMO 240215Z AUTO 00000KT 10SM BKN100 15/02 A3010 RMK AO2 T01490020
KEIK
28.6nm S
KEIK 240215Z AUTO 09003KT 10SM SCT100 14/01 A3009 RMK AO2 T01420012
KBDU
33.3nm SW
KBDU 240215Z AUTO 10003KT 10SM BKN100 14/01 A3009 RMK AO2
KDEN
34.0nm SE
KDEN 240153Z 01003KT 10SM FEW110 FEW160 SCT250 12/02 A3010 RMK AO2 SLP158 T01220022

TAF

KDEN
34.0nm SE
KDEN 232324Z 2400/2506 01012G20KT P6SM FEW060 SCT100 FM240100 02010KT P6SM FEW060 SCT100 FM240400 08006KT P6SM FEW110 SCT220 FM240600 21009KT P6SM FEW120 SCT200 FM241700 26010KT P6SM SCT120 FM241900 32011KT P6SM FEW090 SCT120 FM250200 23010KT P6SM FEW100 SCT200
KBJC
35.8nm S
KBJC 232324Z 2400/2424 01008KT P6SM BKN100 FM240200 30006KT P6SM SCT110 FM240500 25008KT P6SM FEW120 SCT220 FM241800 31011KT P6SM FEW090 SCT120
Safelog

 

Dauntless Aviation

© 2007-2017 Dauntless Aviation, all rights reserved
Information provided via PilotNav comes from a variety of official and unofficial data sources. As errors are possible, do not use PilotNav for primary flight planning purposes. Verify any information that you receive via PilotNav with current and canonical charts and other official documents. The material in this database is subject to database copyrights held by Dauntless Aviation and may not be copied without the express permission of Dauntless Aviation - licenses for use of part of all of this data are available for purchase; enquire via the Dauntless Aviation helpdesk. A number of mechanisms and markers exist in the database to protect against and identify infringement / copyright. Automated queries against this website are stictly prohibited, and all activity is logged and analyzed.